Location: Aressy
(43.2833°N, 0.3167°W)
Time: 18:00:33
(UTC+00:00)

Aureole 3 Rocket - Pass Details

Date: 28 January 2021
Orbit: 398 x 1740 km, 82.5° (Epoch: 02 March)

Event Time Altitude Azimuth Distance (km) Brightness Sun altitude
Rises 17:38:49 0° 5° (N) 2,381 5.8 -6.0°
Reaches altitude 10° 17:40:55 10° 20° (NNE) 1,584 4.8 -6.4°
Maximum altitude 17:43:47 25° 79° (ENE) 1,048 3.7 -6.9°
Drops below altitude 10° 17:47:12 10° 136° (SE) 1,924 5.3 -7.5°
Sets 17:50:02 0° 149° (SSE) 3,037 6.5 -8.0°
